Location: Munkebjergskolens Observatorium
(55.3864°N, 10.3987°E)
Time: 10:04:30
(UTC+02:00)

JY1SAT - Pass Details

Date: 05 April 2023
Orbit: 555 x 574 km, 97.6° (Epoch: 03 June)

Event Time Altitude Azimuth Distance (km) Brightness Sun altitude
Exits shadow 23:36:30 16° 246° (WSW) 1,501 ? -24.7°
Maximum altitude 23:37:48 19° 271° (W) 1,398 ? -24.8°
Drops below altitude 10° 23:40:41 10° 316° (NW) 1,879 ? -25.0°
Sets 23:43:24 0° 335° (NNW) 2,788 ? -25.1°
